Year,Month,Day,Hour,Minute,Value (Times are PST for temperature in C)
2010,05,02,00,00,8.90
2010,05,02,00,01,8.90
2010,05,02,00,02,8.90
2010,05,02,00,03,8.90
2010,05,02,00,04,8.90
2010,05,02,00,05,8.90
2010,05,02,00,06,8.90
2010,05,02,00,07,8.90
2010,05,02,00,08,8.90
2010,05,02,00,09,8.90
2010,05,02,00,10,8.90
2010,05,02,00,11,8.90
2010,05,02,00,12,8.90
2010,05,02,00,13,8.90
2010,05,02,00,14,8.90
2010,05,02,00,15,8.90
2010,05,02,00,16,8.90
2010,05,02,00,17,9.00
2010,05,02,00,18,9.00
2010,05,02,00,19,9.00
2010,05,02,00,20,9.00
2010,05,02,00,21,9.00
2010,05,02,00,22,9.00
2010,05,02,00,23,9.00
2010,05,02,00,24,9.00
2010,05,02,00,25,9.00
2010,05,02,00,26,9.00
2010,05,02,00,27,9.00
2010,05,02,00,28,9.00
2010,05,02,00,29,9.00
2010,05,02,00,30,9.00
2010,05,02,00,31,9.00
2010,05,02,00,32,9.00
2010,05,02,00,33,9.10
2010,05,02,00,34,9.10
2010,05,02,00,35,9.10
2010,05,02,00,36,9.10
2010,05,02,00,37,9.10
2010,05,02,00,38,9.10
2010,05,02,00,39,9.10
2010,05,02,00,40,9.10
2010,05,02,00,41,9.10
2010,05,02,00,42,9.10
2010,05,02,00,43,9.10
2010,05,02,00,44,9.10
2010,05,02,00,45,9.10
2010,05,02,00,46,9.10
2010,05,02,00,47,9.10
2010,05,02,00,48,9.10
2010,05,02,00,49,9.10
2010,05,02,00,50,9.10
2010,05,02,00,51,9.10
2010,05,02,00,52,9.10
2010,05,02,00,53,9.10
2010,05,02,00,54,9.10
2010,05,02,00,55,9.10
2010,05,02,00,56,9.10
2010,05,02,00,57,9.10
2010,05,02,00,58,9.10
2010,05,02,00,59,9.10
2010,05,02,01,00,9.10
2010,05,02,01,01,9.10
2010,05,02,01,02,9.10
2010,05,02,01,03,9.10
2010,05,02,01,04,9.10
2010,05,02,01,05,9.10
2010,05,02,01,06,9.10
2010,05,02,01,07,9.10
2010,05,02,01,08,9.10
2010,05,02,01,09,9.10
2010,05,02,01,10,9.10
2010,05,02,01,11,9.10
2010,05,02,01,12,9.10
2010,05,02,01,13,9.10
2010,05,02,01,14,9.10
2010,05,02,01,15,9.10
2010,05,02,01,16,9.10
2010,05,02,01,17,9.10
2010,05,02,01,18,9.10
2010,05,02,01,19,9.10
2010,05,02,01,20,9.10
2010,05,02,01,21,9.10
2010,05,02,01,22,9.10
2010,05,02,01,23,9.10
2010,05,02,01,24,9.00
2010,05,02,01,25,9.00
2010,05,02,01,26,9.00
2010,05,02,01,27,9.00
2010,05,02,01,28,9.00
2010,05,02,01,29,9.00
2010,05,02,01,30,9.00
2010,05,02,01,31,9.00
2010,05,02,01,32,8.90
2010,05,02,01,33,8.90
2010,05,02,01,34,8.90
2010,05,02,01,35,8.90
2010,05,02,01,36,8.90
2010,05,02,01,37,8.90
2010,05,02,01,38,8.90
2010,05,02,01,39,8.90
2010,05,02,01,40,8.90
2010,05,02,01,41,8.90
2010,05,02,01,42,8.90
2010,05,02,01,43,8.90
2010,05,02,01,44,8.90
2010,05,02,01,45,8.90
2010,05,02,01,46,8.80
2010,05,02,01,47,8.80
2010,05,02,01,48,8.80
2010,05,02,01,49,8.80
2010,05,02,01,50,8.80
2010,05,02,01,51,8.80
2010,05,02,01,52,8.80
2010,05,02,01,53,8.80
2010,05,02,01,54,8.80
2010,05,02,01,55,8.80
2010,05,02,01,56,8.80
2010,05,02,01,57,8.80
2010,05,02,01,58,8.80
2010,05,02,01,59,8.80
2010,05,02,02,00,8.80
2010,05,02,02,01,8.80
2010,05,02,02,02,8.80
2010,05,02,02,03,8.80
2010,05,02,02,04,8.80
2010,05,02,02,05,8.80
2010,05,02,02,06,8.80
2010,05,02,02,07,8.80
2010,05,02,02,08,8.80
2010,05,02,02,09,8.80
2010,05,02,02,10,8.70
2010,05,02,02,11,8.70
2010,05,02,02,12,8.70
2010,05,02,02,13,8.70
2010,05,02,02,14,8.70
2010,05,02,02,15,8.70
2010,05,02,02,16,8.70
2010,05,02,02,17,8.70
2010,05,02,02,18,8.70
2010,05,02,02,19,8.70
2010,05,02,02,20,8.70
2010,05,02,02,21,8.70
2010,05,02,02,22,8.70
2010,05,02,02,23,8.70
2010,05,02,02,24,8.70
2010,05,02,02,25,8.70
2010,05,02,02,26,8.70
2010,05,02,02,27,8.70
2010,05,02,02,28,8.70
2010,05,02,02,29,8.70
2010,05,02,02,30,8.70
2010,05,02,02,31,8.70
2010,05,02,02,32,8.70
2010,05,02,02,33,8.70
2010,05,02,02,34,8.70
2010,05,02,02,35,8.70
2010,05,02,02,36,8.70
2010,05,02,02,37,8.70
2010,05,02,02,38,8.70
2010,05,02,02,39,8.70
2010,05,02,02,40,8.70
2010,05,02,02,41,8.70
2010,05,02,02,42,8.70
2010,05,02,02,43,8.70
2010,05,02,02,44,8.70
2010,05,02,02,45,8.70
2010,05,02,02,46,8.70
2010,05,02,02,47,8.70
2010,05,02,02,48,8.70
2010,05,02,02,49,8.70
2010,05,02,02,50,8.70
2010,05,02,02,51,8.70
2010,05,02,02,52,8.70
2010,05,02,02,53,8.70
2010,05,02,02,54,8.70
2010,05,02,02,55,8.70
2010,05,02,02,56,8.70
2010,05,02,02,57,8.70
2010,05,02,02,58,8.70
2010,05,02,02,59,8.70
2010,05,02,03,00,8.70
2010,05,02,03,01,8.70
2010,05,02,03,02,8.70
2010,05,02,03,06,8.70
2010,05,02,03,07,8.70
2010,05,02,03,08,8.70
2010,05,02,03,09,8.70
2010,05,02,03,10,8.70
2010,05,02,03,11,8.70
2010,05,02,03,12,8.70
2010,05,02,03,13,8.60
2010,05,02,03,14,8.60
2010,05,02,03,15,8.60
2010,05,02,03,16,8.60
2010,05,02,03,17,8.60
2010,05,02,03,18,8.60
2010,05,02,03,19,8.60
2010,05,02,03,20,8.60
2010,05,02,03,21,8.60
2010,05,02,03,22,8.60
2010,05,02,03,23,8.60
2010,05,02,03,24,8.60
2010,05,02,03,25,8.60
2010,05,02,03,26,8.60
2010,05,02,03,27,8.60
2010,05,02,03,28,8.70
2010,05,02,03,29,8.70
2010,05,02,03,30,8.70
2010,05,02,03,31,8.70
2010,05,02,03,32,8.70
2010,05,02,03,33,8.70
2010,05,02,03,34,8.70
2010,05,02,03,35,8.70
2010,05,02,03,36,8.70
2010,05,02,03,37,8.70
2010,05,02,03,38,8.70
2010,05,02,03,39,8.70
2010,05,02,03,40,8.70
2010,05,02,03,41,8.70
2010,05,02,03,42,8.70
2010,05,02,03,43,8.70
2010,05,02,03,44,8.70
2010,05,02,03,45,8.70
2010,05,02,03,46,8.70
2010,05,02,03,47,8.70
2010,05,02,03,48,8.70
2010,05,02,03,49,8.70
2010,05,02,03,50,8.80
2010,05,02,03,51,8.80
2010,05,02,03,52,8.80
2010,05,02,03,53,8.80
2010,05,02,03,54,8.80
2010,05,02,03,55,8.80
2010,05,02,03,56,8.80
2010,05,02,03,57,8.80
2010,05,02,03,58,8.80
2010,05,02,03,59,8.80
2010,05,02,04,00,8.80
2010,05,02,04,01,8.80
2010,05,02,04,02,8.80
2010,05,02,04,03,8.80
2010,05,02,04,04,8.80
2010,05,02,04,05,8.80
2010,05,02,04,06,8.80
2010,05,02,04,07,8.80
2010,05,02,04,08,8.80
2010,05,02,04,09,8.80
2010,05,02,04,10,8.80
2010,05,02,04,11,8.80
2010,05,02,04,12,8.80
2010,05,02,04,13,8.80
2010,05,02,04,14,8.80
2010,05,02,04,15,8.80
2010,05,02,04,16,8.70
2010,05,02,04,17,8.80
2010,05,02,04,18,8.80
2010,05,02,04,19,8.80
2010,05,02,04,20,8.80
2010,05,02,04,21,8.70
2010,05,02,04,22,8.70
2010,05,02,04,23,8.70
2010,05,02,04,24,8.70
2010,05,02,04,25,8.70
2010,05,02,04,26,8.70
2010,05,02,04,27,8.70
2010,05,02,04,28,8.70
2010,05,02,04,29,8.70
2010,05,02,04,30,8.70
2010,05,02,04,31,8.70
2010,05,02,04,32,8.70
2010,05,02,04,33,8.70
2010,05,02,04,34,8.70
2010,05,02,04,35,8.70
2010,05,02,04,36,8.70
2010,05,02,04,37,8.70
2010,05,02,04,38,8.70
2010,05,02,04,39,8.70
2010,05,02,04,40,8.70
2010,05,02,04,41,8.70
2010,05,02,04,42,8.70
2010,05,02,04,43,8.70
2010,05,02,04,44,8.70
2010,05,02,04,45,8.70
2010,05,02,04,46,8.70
2010,05,02,04,47,8.70
2010,05,02,04,48,8.70
2010,05,02,04,49,8.70
2010,05,02,04,50,8.70
2010,05,02,04,51,8.70
2010,05,02,04,52,8.70
2010,05,02,04,53,8.70
2010,05,02,04,54,8.70
2010,05,02,04,55,8.70
2010,05,02,04,56,8.70
2010,05,02,04,57,8.70
2010,05,02,04,58,8.70
2010,05,02,04,59,8.70
2010,05,02,05,00,8.70
2010,05,02,05,01,8.70
2010,05,02,05,02,8.70
2010,05,02,05,03,8.70
2010,05,02,05,04,8.70
2010,05,02,05,05,8.70
2010,05,02,05,06,8.70
2010,05,02,05,07,8.70
2010,05,02,05,08,8.70
2010,05,02,05,09,8.70
2010,05,02,05,10,8.70
2010,05,02,05,11,8.70
2010,05,02,05,12,8.70
2010,05,02,05,13,8.70
2010,05,02,05,14,8.70
2010,05,02,05,15,8.70
2010,05,02,05,16,8.70
2010,05,02,05,17,8.70
2010,05,02,05,18,8.70
2010,05,02,05,19,8.70
2010,05,02,05,20,8.70
2010,05,02,05,21,8.70
2010,05,02,05,22,8.60
2010,05,02,05,23,8.60
2010,05,02,05,24,8.70
2010,05,02,05,25,8.60
2010,05,02,05,26,8.60
2010,05,02,05,27,8.60
2010,05,02,05,28,8.60
2010,05,02,05,29,8.60
2010,05,02,05,30,8.60
2010,05,02,05,31,8.60
2010,05,02,05,32,8.60
2010,05,02,05,33,8.60
2010,05,02,05,34,8.60
2010,05,02,05,35,8.60
2010,05,02,05,36,8.60
2010,05,02,05,37,8.60
2010,05,02,05,38,8.60
2010,05,02,05,39,8.60
2010,05,02,05,40,8.60
2010,05,02,05,41,8.60
2010,05,02,05,42,8.60
2010,05,02,05,43,8.60
2010,05,02,05,44,8.60
2010,05,02,05,45,8.60
2010,05,02,05,46,8.60
2010,05,02,05,47,8.60
2010,05,02,05,48,8.60
2010,05,02,05,49,8.60
2010,05,02,05,50,8.60
2010,05,02,05,51,8.70
2010,05,02,05,52,8.70
2010,05,02,05,53,8.70
2010,05,02,05,54,8.70
2010,05,02,05,55,8.70
2010,05,02,05,56,8.70
2010,05,02,05,57,8.70
2010,05,02,05,58,8.70
2010,05,02,05,59,8.70
2010,05,02,06,00,8.70
2010,05,02,06,01,8.70
2010,05,02,06,02,8.70
2010,05,02,06,03,8.70
2010,05,02,06,04,8.70
2010,05,02,06,05,8.70
2010,05,02,06,06,8.70
2010,05,02,06,07,8.70
2010,05,02,06,08,8.70
2010,05,02,06,09,8.70
2010,05,02,06,10,8.70
2010,05,02,06,11,8.70
2010,05,02,06,12,8.70
2010,05,02,06,13,8.70
2010,05,02,06,14,8.70
2010,05,02,06,15,8.70
2010,05,02,06,16,8.70
2010,05,02,06,17,8.70
2010,05,02,06,18,8.70
2010,05,02,06,19,8.70
2010,05,02,06,20,8.70
2010,05,02,06,21,8.70
2010,05,02,06,22,8.70
2010,05,02,06,23,8.70
2010,05,02,06,24,8.70
2010,05,02,06,25,8.70
2010,05,02,06,26,8.70
2010,05,02,06,27,8.70
2010,05,02,06,28,8.70
2010,05,02,06,29,8.70
2010,05,02,06,30,8.70
2010,05,02,06,31,8.70
2010,05,02,06,32,8.70
2010,05,02,06,33,8.70
2010,05,02,06,34,8.70
2010,05,02,06,35,8.70
2010,05,02,06,36,8.70
2010,05,02,06,37,8.70
2010,05,02,06,38,8.70
2010,05,02,06,39,8.70
2010,05,02,06,40,8.70
2010,05,02,06,41,8.70
2010,05,02,06,42,8.70
2010,05,02,06,43,8.70
2010,05,02,06,44,8.70
2010,05,02,06,45,8.70
2010,05,02,06,46,8.70
2010,05,02,06,47,8.70
2010,05,02,06,48,8.70
2010,05,02,06,49,8.70
2010,05,02,06,50,8.70
2010,05,02,06,51,8.70
2010,05,02,06,52,8.70
2010,05,02,06,53,8.70
2010,05,02,06,54,8.70
2010,05,02,06,55,8.80
2010,05,02,06,56,8.80
2010,05,02,06,57,8.80
2010,05,02,06,58,8.80
2010,05,02,06,59,8.80
2010,05,02,07,00,8.80
2010,05,02,07,01,8.80
2010,05,02,07,02,8.80
2010,05,02,07,03,8.80
2010,05,02,07,04,8.80
2010,05,02,07,05,8.80
2010,05,02,07,06,8.80
2010,05,02,07,07,8.90
2010,05,02,07,08,8.90
2010,05,02,07,09,8.90
2010,05,02,07,10,8.90
2010,05,02,07,11,8.90
2010,05,02,07,12,8.90
2010,05,02,07,13,8.90
2010,05,02,07,14,8.90
2010,05,02,07,15,8.90
2010,05,02,07,16,8.90
2010,05,02,07,17,8.90
2010,05,02,07,18,8.90
2010,05,02,07,19,8.90
2010,05,02,07,20,8.90
2010,05,02,07,21,8.90
2010,05,02,07,22,8.90
2010,05,02,07,23,9.00
2010,05,02,07,24,9.00
2010,05,02,07,25,9.00
2010,05,02,07,26,9.00
2010,05,02,07,27,9.00
2010,05,02,07,28,9.00
2010,05,02,07,29,9.00
2010,05,02,07,30,9.00
2010,05,02,07,31,9.00
2010,05,02,07,32,9.00
2010,05,02,07,33,9.00
2010,05,02,07,34,9.00
2010,05,02,07,35,9.00
2010,05,02,07,36,9.00
2010,05,02,07,37,9.00
2010,05,02,07,38,9.00
2010,05,02,07,39,9.00
2010,05,02,07,40,9.00
2010,05,02,07,41,9.00
2010,05,02,07,42,9.00
2010,05,02,07,43,9.00
2010,05,02,07,44,9.00
2010,05,02,07,45,9.00
2010,05,02,07,46,9.00
2010,05,02,07,47,9.00
2010,05,02,07,48,9.00
2010,05,02,07,49,9.00
2010,05,02,07,50,9.00
2010,05,02,07,51,9.00
2010,05,02,07,52,9.00
2010,05,02,07,53,9.00
2010,05,02,07,54,9.00
2010,05,02,07,55,9.00
2010,05,02,07,56,9.10
2010,05,02,07,57,9.10
2010,05,02,07,58,9.10
2010,05,02,07,59,9.10
2010,05,02,08,00,9.10
2010,05,02,08,01,9.10
2010,05,02,08,02,9.10
2010,05,02,08,03,9.10
2010,05,02,08,04,9.10
2010,05,02,08,05,9.10
2010,05,02,08,06,9.10
2010,05,02,08,07,9.10
2010,05,02,08,08,9.10
2010,05,02,08,09,9.10
2010,05,02,08,10,9.10
2010,05,02,08,11,9.10
2010,05,02,08,12,9.10
2010,05,02,08,13,9.20
2010,05,02,08,14,9.20
2010,05,02,08,15,9.20
2010,05,02,08,16,9.20
2010,05,02,08,17,9.20
2010,05,02,08,18,9.20
2010,05,02,08,19,9.30
2010,05,02,08,20,9.30
2010,05,02,08,21,9.30
2010,05,02,08,22,9.30
2010,05,02,08,23,9.30
2010,05,02,08,24,9.30
2010,05,02,08,25,9.30
2010,05,02,08,26,9.30
2010,05,02,08,27,9.30
2010,05,02,08,28,9.30
2010,05,02,08,29,9.30
2010,05,02,08,30,9.30
2010,05,02,08,31,9.30
2010,05,02,08,32,9.30
2010,05,02,08,33,9.30
2010,05,02,08,34,9.30
2010,05,02,08,35,9.30
2010,05,02,08,36,9.30
2010,05,02,08,37,9.20
2010,05,02,08,38,9.20
2010,05,02,08,39,9.20
2010,05,02,08,40,9.10
2010,05,02,08,41,9.10
2010,05,02,08,42,9.10
2010,05,02,08,43,9.10
2010,05,02,08,44,9.10
2010,05,02,08,45,9.10
2010,05,02,08,46,9.10
2010,05,02,08,47,9.10
2010,05,02,08,48,9.10
2010,05,02,08,49,9.10
2010,05,02,08,50,9.10
2010,05,02,08,51,9.10
2010,05,02,08,52,9.10
2010,05,02,08,53,9.10
2010,05,02,08,54,9.10
2010,05,02,08,55,9.10
2010,05,02,08,56,9.10
2010,05,02,08,57,9.10
2010,05,02,08,58,9.10
2010,05,02,08,59,9.10
2010,05,02,09,00,9.00
2010,05,02,09,01,9.00
2010,05,02,09,02,9.00
2010,05,02,09,03,8.90
2010,05,02,09,04,8.90
2010,05,02,09,05,9.00
2010,05,02,09,06,9.00
2010,05,02,09,07,9.00
2010,05,02,09,08,9.00
2010,05,02,09,09,9.00
2010,05,02,09,10,8.90
2010,05,02,09,11,8.90
2010,05,02,09,12,8.90
2010,05,02,09,13,8.90
2010,05,02,09,14,8.90
2010,05,02,09,15,8.80
2010,05,02,09,16,8.80
2010,05,02,09,17,8.80
2010,05,02,09,18,8.80
2010,05,02,09,19,8.80
2010,05,02,09,20,8.70
2010,05,02,09,21,8.80
2010,05,02,09,22,8.80
2010,05,02,09,23,8.80
2010,05,02,09,24,8.80
2010,05,02,09,25,8.80
2010,05,02,09,26,8.80
2010,05,02,09,27,8.80
2010,05,02,09,28,8.80
2010,05,02,09,29,8.80
2010,05,02,09,30,8.70
2010,05,02,09,31,8.70
2010,05,02,09,32,8.80
2010,05,02,09,33,8.80
2010,05,02,09,34,8.80
2010,05,02,09,35,8.80
2010,05,02,09,36,8.80
2010,05,02,09,37,8.80
2010,05,02,09,38,8.70
2010,05,02,09,39,8.70
2010,05,02,09,40,8.70
2010,05,02,09,41,8.70
2010,05,02,09,42,8.70
2010,05,02,09,43,8.70
2010,05,02,09,44,8.70
2010,05,02,09,45,8.70
2010,05,02,09,46,8.70
2010,05,02,09,47,8.70
2010,05,02,09,48,8.70
2010,05,02,09,49,8.70
2010,05,02,09,50,8.70
2010,05,02,09,51,8.70
2010,05,02,09,52,8.80
2010,05,02,09,53,8.80
2010,05,02,09,54,8.80
2010,05,02,09,55,8.80
2010,05,02,09,56,8.80
2010,05,02,09,57,8.80
2010,05,02,09,58,8.80
2010,05,02,09,59,8.80
2010,05,02,10,00,8.80
2010,05,02,10,01,8.80
2010,05,02,10,02,8.80
2010,05,02,10,03,8.90
2010,05,02,10,04,8.90
2010,05,02,10,05,9.00
2010,05,02,10,06,9.10
2010,05,02,10,07,9.10
2010,05,02,10,08,9.20
2010,05,02,10,09,9.20
2010,05,02,10,10,9.20
2010,05,02,10,11,9.30
2010,05,02,10,12,9.30
2010,05,02,10,13,9.30
2010,05,02,10,14,9.30
2010,05,02,10,15,9.40
2010,05,02,10,16,9.40
2010,05,02,10,17,9.40
2010,05,02,10,18,9.50
2010,05,02,10,19,9.50
2010,05,02,10,20,9.60
2010,05,02,10,21,9.60
2010,05,02,10,22,9.60
2010,05,02,10,23,9.60
2010,05,02,10,24,9.70
2010,05,02,10,25,9.70
2010,05,02,10,26,9.70
2010,05,02,10,27,9.70
2010,05,02,10,28,9.80
2010,05,02,10,29,9.80
2010,05,02,10,30,9.80
2010,05,02,10,31,9.80
2010,05,02,10,32,9.80
2010,05,02,10,33,9.80
2010,05,02,10,34,9.80
2010,05,02,10,35,9.90
2010,05,02,10,36,9.90
2010,05,02,10,37,9.90
2010,05,02,10,38,9.90
2010,05,02,10,39,9.90
2010,05,02,10,40,9.90
2010,05,02,10,41,9.90
2010,05,02,10,42,9.90
2010,05,02,10,43,9.90
2010,05,02,10,44,9.90
2010,05,02,10,45,10.00
2010,05,02,10,46,10.00
2010,05,02,10,47,10.00
2010,05,02,10,48,10.10
2010,05,02,10,49,10.10
2010,05,02,10,50,10.10
2010,05,02,10,51,10.20
2010,05,02,10,52,10.20
2010,05,02,10,53,10.20
2010,05,02,10,54,10.10
2010,05,02,10,55,10.10
2010,05,02,10,56,10.20
2010,05,02,10,57,10.20
2010,05,02,10,58,10.20
2010,05,02,10,59,10.20
2010,05,02,11,00,10.20
2010,05,02,11,01,10.20
2010,05,02,11,02,10.30
2010,05,02,11,03,10.30
2010,05,02,11,04,10.30
2010,05,02,11,05,10.30
2010,05,02,11,06,10.40
2010,05,02,11,07,10.30
2010,05,02,11,08,10.30
2010,05,02,11,09,10.30
2010,05,02,11,10,10.20
2010,05,02,11,11,10.20
2010,05,02,11,12,10.20
2010,05,02,11,13,10.10
2010,05,02,11,14,10.10
2010,05,02,11,15,10.10
2010,05,02,11,16,10.10
2010,05,02,11,17,10.10
2010,05,02,11,18,10.10
2010,05,02,11,19,10.20
2010,05,02,11,20,10.20
2010,05,02,11,21,10.20
2010,05,02,11,22,10.20
2010,05,02,11,23,10.20
2010,05,02,11,24,10.10
2010,05,02,11,25,10.10
2010,05,02,11,26,10.10
2010,05,02,11,27,10.10
2010,05,02,11,28,10.10
2010,05,02,11,29,10.10
2010,05,02,11,30,10.10
2010,05,02,11,31,10.00
2010,05,02,11,32,10.00
2010,05,02,11,33,9.90
2010,05,02,11,34,9.90
2010,05,02,11,35,9.90
2010,05,02,11,36,9.90
2010,05,02,11,37,9.90
2010,05,02,11,38,9.90
2010,05,02,11,39,9.90
2010,05,02,11,40,9.90
2010,05,02,11,41,9.90
2010,05,02,11,42,9.90
2010,05,02,11,43,9.90
2010,05,02,11,44,9.90
2010,05,02,11,45,9.90
2010,05,02,11,46,9.90
2010,05,02,11,47,9.90
2010,05,02,11,48,9.90
2010,05,02,11,49,9.90
2010,05,02,11,50,9.90
2010,05,02,11,51,9.90
2010,05,02,11,52,9.90
2010,05,02,11,53,10.00
2010,05,02,11,54,10.00
2010,05,02,11,55,10.10
2010,05,02,11,56,10.10
2010,05,02,11,57,10.10
2010,05,02,11,58,10.10
2010,05,02,11,59,10.20
2010,05,02,12,00,10.20
2010,05,02,12,01,10.20
2010,05,02,12,02,10.20
2010,05,02,12,03,10.30
2010,05,02,12,04,10.30
2010,05,02,12,05,10.40
2010,05,02,12,06,10.40
2010,05,02,12,07,10.40
2010,05,02,12,08,10.50
2010,05,02,12,09,10.50
2010,05,02,12,10,10.50
2010,05,02,12,11,10.50
2010,05,02,12,12,10.50
2010,05,02,12,13,10.50
2010,05,02,12,14,10.50
2010,05,02,12,15,10.50
2010,05,02,12,16,10.60
2010,05,02,12,17,10.60
2010,05,02,12,18,10.60
2010,05,02,12,19,10.60
2010,05,02,12,20,10.60
2010,05,02,12,21,10.60
2010,05,02,12,22,10.50
2010,05,02,12,23,10.50
2010,05,02,12,24,10.50
2010,05,02,12,25,10.50
2010,05,02,12,26,10.50
2010,05,02,12,27,10.50
2010,05,02,12,28,10.50
2010,05,02,12,29,10.50
2010,05,02,12,30,10.50
2010,05,02,12,31,10.60
2010,05,02,12,32,10.60
2010,05,02,12,33,10.60
2010,05,02,12,34,10.60
2010,05,02,12,35,10.60
2010,05,02,12,36,10.60
2010,05,02,12,37,10.60
2010,05,02,12,38,10.60
2010,05,02,12,39,10.70
2010,05,02,12,40,10.70
2010,05,02,12,41,10.70
2010,05,02,12,42,10.70
2010,05,02,12,43,10.70
2010,05,02,12,44,10.70
2010,05,02,12,45,10.70
2010,05,02,12,46,10.70
2010,05,02,12,47,10.70
2010,05,02,12,48,10.70
2010,05,02,12,49,10.70
2010,05,02,12,50,10.70
2010,05,02,12,51,10.70
2010,05,02,12,52,10.70
2010,05,02,12,53,10.60
2010,05,02,12,54,10.60
2010,05,02,12,55,10.60
2010,05,02,12,56,10.60
2010,05,02,12,57,10.60
2010,05,02,12,58,10.60
2010,05,02,12,59,10.60
2010,05,02,13,00,10.60
2010,05,02,13,01,10.60
2010,05,02,13,02,10.60
2010,05,02,13,03,10.60
2010,05,02,13,04,10.70
2010,05,02,13,05,10.70
2010,05,02,13,06,10.70
2010,05,02,13,07,10.70
2010,05,02,13,08,10.80
2010,05,02,13,09,10.80
2010,05,02,13,10,10.80
2010,05,02,13,11,10.80
2010,05,02,13,12,10.80
2010,05,02,13,13,10.80
2010,05,02,13,14,10.80
2010,05,02,13,15,10.80
2010,05,02,13,16,10.80
2010,05,02,13,17,10.80
2010,05,02,13,18,10.80
2010,05,02,13,19,10.90
2010,05,02,13,20,10.90
2010,05,02,13,21,10.90
2010,05,02,13,22,10.90
2010,05,02,13,23,11.00
2010,05,02,13,24,11.00
2010,05,02,13,25,11.00
2010,05,02,13,26,11.00
2010,05,02,13,27,11.00
2010,05,02,13,28,11.00
2010,05,02,13,29,11.00
2010,05,02,13,30,11.00
2010,05,02,13,31,10.90
2010,05,02,13,32,10.90
2010,05,02,13,33,10.90
2010,05,02,13,34,10.80
2010,05,02,13,35,10.80
2010,05,02,13,36,10.80
2010,05,02,13,37,10.80
2010,05,02,13,38,10.80
2010,05,02,13,39,10.80
2010,05,02,13,40,10.70
2010,05,02,13,41,10.70
2010,05,02,13,42,10.70
2010,05,02,13,43,10.70
2010,05,02,13,44,10.70
2010,05,02,13,45,10.70
2010,05,02,13,46,10.70
2010,05,02,13,47,10.70
2010,05,02,13,48,10.70
2010,05,02,13,49,10.60
2010,05,02,13,50,10.60
2010,05,02,13,51,10.60
2010,05,02,13,52,10.60
2010,05,02,13,53,10.60
2010,05,02,13,54,10.70
2010,05,02,13,55,10.70
2010,05,02,13,56,10.70
2010,05,02,13,57,10.70
2010,05,02,13,58,10.70
2010,05,02,13,59,10.70
2010,05,02,14,00,10.70
2010,05,02,14,01,10.70
2010,05,02,14,02,10.70
2010,05,02,14,03,10.70
2010,05,02,14,04,10.70
2010,05,02,14,05,10.60
2010,05,02,14,06,10.60
2010,05,02,14,07,10.60
2010,05,02,14,08,10.50
2010,05,02,14,09,10.50
2010,05,02,14,10,10.50
2010,05,02,14,11,10.50
2010,05,02,14,12,10.40
2010,05,02,14,13,10.40
2010,05,02,14,14,10.40
2010,05,02,14,15,10.40
2010,05,02,14,16,10.40
2010,05,02,14,17,10.40
2010,05,02,14,18,10.40
2010,05,02,14,19,10.40
2010,05,02,14,20,10.40
2010,05,02,14,21,10.40
2010,05,02,14,22,10.30
2010,05,02,14,23,10.40
2010,05,02,14,24,10.40
2010,05,02,14,25,10.40
2010,05,02,14,26,10.40
2010,05,02,14,27,10.40
2010,05,02,14,28,10.30
2010,05,02,14,29,10.30
2010,05,02,14,30,10.30
2010,05,02,14,31,10.30
2010,05,02,14,32,10.20
2010,05,02,14,33,10.20
2010,05,02,14,34,10.20
2010,05,02,14,35,10.20
2010,05,02,14,36,10.20
2010,05,02,14,37,10.20
2010,05,02,14,38,10.20
2010,05,02,14,39,10.20
2010,05,02,14,40,10.20
2010,05,02,14,41,10.20
2010,05,02,14,42,10.20
2010,05,02,14,43,10.20
2010,05,02,14,44,10.20
2010,05,02,14,45,10.10
2010,05,02,14,46,10.10
2010,05,02,14,47,10.10
2010,05,02,14,48,10.10
2010,05,02,14,49,10.10
2010,05,02,14,50,10.20
2010,05,02,14,51,10.20
2010,05,02,14,52,10.10
2010,05,02,14,53,10.10
2010,05,02,14,54,10.10
2010,05,02,14,55,10.10
2010,05,02,14,56,10.10
2010,05,02,14,57,10.20
2010,05,02,14,58,10.20
2010,05,02,14,59,10.20
2010,05,02,15,00,10.20
2010,05,02,15,01,10.20
2010,05,02,15,02,10.20
2010,05,02,15,03,10.20
2010,05,02,15,04,10.20
2010,05,02,15,05,10.20
2010,05,02,15,06,10.20
2010,05,02,15,07,10.10
2010,05,02,15,08,10.10
2010,05,02,15,09,10.10
2010,05,02,15,10,10.10
2010,05,02,15,11,10.10
2010,05,02,15,12,10.10
2010,05,02,15,13,10.10
2010,05,02,15,14,10.10
2010,05,02,15,15,10.10
2010,05,02,15,16,10.10
2010,05,02,15,17,10.10
2010,05,02,15,18,10.10
2010,05,02,15,19,10.20
2010,05,02,15,20,10.20
2010,05,02,15,21,10.20
2010,05,02,15,22,10.20
2010,05,02,15,23,10.30
2010,05,02,15,24,10.30
2010,05,02,15,25,10.30
2010,05,02,15,26,10.30
2010,05,02,15,27,10.30
2010,05,02,15,28,10.30
2010,05,02,15,29,10.30
2010,05,02,15,30,10.30
2010,05,02,15,31,10.30
2010,05,02,15,32,10.30
2010,05,02,15,33,10.30
2010,05,02,15,34,10.30
2010,05,02,15,35,10.30
2010,05,02,15,36,10.30
2010,05,02,15,37,10.20
2010,05,02,15,38,10.20
2010,05,02,15,39,10.20
2010,05,02,15,40,10.20
2010,05,02,15,41,10.20
2010,05,02,15,42,10.20
2010,05,02,15,43,10.20
2010,05,02,15,44,10.20
2010,05,02,15,45,10.20
2010,05,02,15,46,10.10
2010,05,02,15,47,10.10
2010,05,02,15,48,10.10
2010,05,02,15,49,10.10
2010,05,02,15,50,10.10
2010,05,02,15,51,10.00
2010,05,02,15,52,10.00
2010,05,02,15,53,9.90
2010,05,02,15,54,9.90
2010,05,02,15,55,9.90
2010,05,02,15,56,9.90
2010,05,02,15,57,9.90
2010,05,02,15,58,9.90
2010,05,02,15,59,9.90
2010,05,02,16,00,9.90
2010,05,02,16,01,9.80
2010,05,02,16,02,9.80
2010,05,02,16,03,9.80
2010,05,02,16,04,9.80
2010,05,02,16,05,9.80
2010,05,02,16,06,9.80
2010,05,02,16,07,9.80
2010,05,02,16,08,9.70
2010,05,02,16,09,9.70
2010,05,02,16,10,9.70
2010,05,02,16,11,9.70
2010,05,02,16,12,9.60
2010,05,02,16,13,9.60
2010,05,02,16,14,9.60
2010,05,02,16,15,9.70
2010,05,02,16,16,9.60
2010,05,02,16,17,9.60
2010,05,02,16,18,9.60
2010,05,02,16,19,9.60
2010,05,02,16,20,9.60
2010,05,02,16,21,9.60
2010,05,02,16,22,9.60
2010,05,02,16,23,9.60
2010,05,02,16,24,9.60
2010,05,02,16,25,9.60
2010,05,02,16,26,9.70
2010,05,02,16,27,9.60
2010,05,02,16,28,9.70
2010,05,02,16,29,9.70
2010,05,02,16,30,9.70
2010,05,02,16,31,9.70
2010,05,02,16,32,9.70
2010,05,02,16,33,9.70
2010,05,02,16,34,9.70
2010,05,02,16,35,9.70
2010,05,02,16,36,9.60
2010,05,02,16,37,9.60
2010,05,02,16,38,9.60
2010,05,02,16,39,9.60
2010,05,02,16,40,9.60
2010,05,02,16,41,9.60
2010,05,02,16,42,9.60
2010,05,02,16,43,9.60
2010,05,02,16,44,9.60
2010,05,02,16,45,9.60
2010,05,02,16,46,9.60
2010,05,02,16,47,9.60
2010,05,02,16,48,9.60
2010,05,02,16,49,9.50
2010,05,02,16,50,9.50
2010,05,02,16,51,9.50
2010,05,02,16,52,9.50
2010,05,02,16,53,9.50
2010,05,02,16,54,9.50
2010,05,02,16,55,9.60
2010,05,02,16,56,9.60
2010,05,02,16,57,9.60
2010,05,02,16,58,9.60
2010,05,02,16,59,9.60
2010,05,02,17,00,9.60
2010,05,02,17,01,9.60
2010,05,02,17,02,9.60
2010,05,02,17,03,9.60
2010,05,02,17,04,9.50
2010,05,02,17,05,9.50
2010,05,02,17,06,9.50
2010,05,02,17,07,9.40
2010,05,02,17,08,9.40
2010,05,02,17,09,9.40
2010,05,02,17,10,9.30
2010,05,02,17,11,9.30
2010,05,02,17,12,9.30
2010,05,02,17,13,9.30
2010,05,02,17,14,9.30
2010,05,02,17,15,9.30
2010,05,02,17,16,9.30
2010,05,02,17,17,9.30
2010,05,02,17,18,9.30
2010,05,02,17,19,9.30
2010,05,02,17,20,9.30
2010,05,02,17,21,9.20
2010,05,02,17,22,9.20
2010,05,02,17,23,9.20
2010,05,02,17,24,9.20
2010,05,02,17,25,9.20
2010,05,02,17,26,9.10
2010,05,02,17,27,9.10
2010,05,02,17,28,9.10
2010,05,02,17,29,9.10
2010,05,02,17,30,9.10
2010,05,02,17,31,9.10
2010,05,02,17,32,9.10
2010,05,02,17,33,9.10
2010,05,02,17,34,9.10
2010,05,02,17,35,9.10
2010,05,02,17,36,9.10
2010,05,02,17,37,9.10
2010,05,02,17,38,9.10
2010,05,02,17,39,9.10
2010,05,02,17,40,9.10
2010,05,02,17,41,9.10
2010,05,02,17,42,9.10
2010,05,02,17,43,9.10
2010,05,02,17,44,9.10
2010,05,02,17,45,9.00
2010,05,02,17,46,9.00
2010,05,02,17,47,9.00
2010,05,02,17,48,8.90
2010,05,02,17,49,8.90
2010,05,02,17,50,8.90
2010,05,02,17,51,8.90
2010,05,02,17,52,8.80
2010,05,02,17,53,8.80
2010,05,02,17,54,8.80
2010,05,02,17,55,8.80
2010,05,02,17,56,8.80